#timestamp,LO_Frequency,Hit,StdDev 
1679666415.7,286047000.1,N
1679666435.6,286046998.2,N
1679666455.4,286047000.0,N
1679666475.3,286047002.6,N
1679666495.1,286047004.0,N
1679666496.0,286047004.0,N
1679666515.8,286047002.1,N
1679666535.7,286047000.1,N
1679666555.5,286047000.1,N
1679666575.3,286047000.2,N
1679666595.2,286047000.4,N
1679666615.0,286046999.9,N
1679666615.9,286046999.9,N
1679666635.8,286047002.7,N
1679666655.6,286047000.4,N
1679666675.4,286047001.1,N
1679666695.3,286047000.2,N
1679666715.1,286047000.4,N
1679666735.9,286047000.9,N
1679666755.7,286046998.3,N
1679666775.5,286047001.1,N
1679666795.4,286047000.7,N
1679666815.2,286046998.3,N
1679666835.0,286046999.4,N
1679666835.9,286046999.4,N
1679666855.8,286046999.4,N
1679666875.6,286046997.0,N
1679666895.5,286046998.4,N
1679666915.3,286046998.8,N
1679666935.1,286046999.5,N
1679666955.9,286046999.0,N
1679666975.7,286046999.6,N
1679666995.6,286046998.9,N
1679667015.4,286046997.0,N
1679667035.2,286047000.3,N
1679667055.1,286047000.4,N
1679667056.0,286047000.4,N
1679667075.8,286047000.2,N
1679667095.6,286046998.1,N
1679667115.5,286047000.7,N
1679667135.3,286047001.2,N
1679667155.2,286046999.0,N
1679667175.9,286046998.4,N
1679667195.7,286046998.5,N
1679667215.6,286046999.1,N
1679667235.4,286046998.8,N
1679667255.2,286046997.0,N
1679667275.1,286046999.1,N
1679667276.0,286046999.1,N
1679667295.8,286046999.6,N
1679667315.7,286046996.9,N
1679667335.5,286046997.0,N
1679667355.3,286046996.5,Y
1679667375.2,286046998.9,P
1679667395.0,286046997.4,P
1679667395.9,286046997.4,P
1679667415.8,286046995.1,Y
1679667435.6,286046996.9,P
1679667455.4,286046995.0,P
1679667475.3,286046995.6,P
1679667495.1,286046997.7,N
1679667515.8,286046997.4,N
1679667535.7,286046997.1,N
1679667555.5,286046997.7,N
1679667575.3,286046997.3,N
1679667595.2,286046997.2,N
1679667615.0,286046997.2,Y
1679667615.9,286046997.2,P
1679667635.8,286047000.7,P
1679667655.6,286047000.7,N
1679667675.4,286046996.5,N
1679667695.3,286046998.4,N
1679667715.1,286046996.6,N
1679667735.9,286046997.0,N
1679667755.7,286046999.0,N
1679667775.5,286046998.8,N
1679667795.4,286046998.6,N
1679667815.2,286046999.6,N
1679667835.0,286046998.9,N
1679667835.9,286046998.9,N
1679667855.8,286046999.4,N
1679667875.6,286046997.7,N
1679667895.5,286046994.9,Y
1679667915.3,286046996.9,P
1679667935.1,286046999.3,N
1679667955.9,286046997.3,N
1679667975.7,286046994.9,Y
1679667995.5,286046998.3,P
1679668015.4,286046999.0,P
1679668035.2,286046998.9,N
1679668055.1,286047001.0,N
1679668056.0,286047001.0,N
1679668075.8,286046998.6,N
1679668095.6,286047000.8,N
1679668115.5,286047001.0,N
1679668135.3,286047002.8,N
1679668155.1,286047000.8,N
1679668175.9,286046998.6,N
1679668195.7,286046998.4,N
1679668215.6,286046998.3,N
1679668235.4,286046999.4,N
1679668255.2,286046998.4,N
1679668275.1,286046999.4,N
1679668276.0,286046999.4,N
1679668295.8,286046998.8,N
1679668315.6,286046998.4,N
1679668335.5,286046996.6,N
1679668355.3,286046999.3,N
1679668375.2,286046999.3,N
1679668395.9,286046999.0,N
1679668415.7,286046998.3,N
1679668435.6,286046998.9,N
1679668455.4,286046999.4,N
1679668475.2,286046996.9,N
1679668495.1,286047000.9,N
1679668496.0,286047000.9,N
1679668515.8,286047000.7,N
1679668535.7,286046998.1,N
1679668555.5,286047000.7,N
1679668575.3,286047001.0,N
1679668595.2,286046998.4,N
1679668615.0,286046997.1,N
1679668615.9,286046997.1,N
1679668635.8,286046998.4,N
1679668655.6,286046997.8,N
1679668675.4,286046997.5,N
1679668695.3,286046999.3,N
1679668715.1,286047001.0,N
1679668716.0,286047001.0,N
1679668735.8,286047001.0,N
1679668755.7,286046998.9,N
1679668775.5,286046999.3,N
1679668795.4,286046998.8,N
1679668815.2,286046999.2,N
1679668835.0,286046997.5,N
1679668835.9,286046997.5,N
1679668855.8,286046998.0,N
1679668875.6,286046996.7,N
1679668895.4,286046996.7,N
1679668915.3,286046996.5,N
1679668935.1,286046997.2,N
1679668955.9,286046997.4,N
1679668975.7,286046997.4,N
1679668995.5,286046997.7,N
1679669015.4,286046997.0,N
1679669035.2,286046997.8,N
1679669055.1,286046997.2,N
1679669056.0,286046997.2,N
1679669075.8,286046997.6,N
1679669095.6,286046998.0,N
1679669115.5,286046995.3,Y
1679669135.3,286046998.4,P
1679669155.1,286046998.6,P
1679669175.9,286046998.8,P
1679669195.7,286046999.1,Y
1679669215.6,286047001.2,P
1679669235.4,286046998.5,N
1679669255.2,286046997.1,N
1679669275.1,286046997.4,N
1679669276.0,286046997.4,N
1679669295.8,286046995.4,Y
1679669315.7,286046999.6,P
1679669335.5,286046995.0,P
1679669355.3,286046995.6,N
1679669375.2,286046993.7,Y
1679669395.0,286046999.2,P
1679669395.9,286046999.2,N
1679669415.7,286046998.1,N
1679669435.6,286046999.4,N
1679669455.4,286046997.3,Y
1679669475.3,286046999.3,P
1679669495.1,286046996.5,P
1679669496.0,286046996.5,N
1679669515.8,286046995.0,Y
1679669535.7,286046996.5,P
1679669555.5,286046995.5,P
1679669575.4,286046996.0,P
1679669595.2,286046994.2,Y
1679669615.0,286046997.9,P
1679669615.9,286046997.9,N
1679669635.8,286046995.8,P
1679669655.6,286046992.0,Y
1679669675.4,286046994.1,P
1679669695.3,286046993.2,P
1679669715.1,286046990.1,P
1679669735.9,286046991.1,Y
1679669755.7,286046997.8,P
1679669775.5,286046996.0,N
1679669795.4,286046991.9,P
1679669815.2,286046990.1,Y
1679669835.1,286046994.1,P
1679669836.0,286046994.1,P
1679669855.8,286046992.6,P
1679669875.6,286046990.4,Y
1679669895.5,286046996.1,P
1679669915.3,286046994.8,P
1679669935.1,286046993.1,P
1679669955.9,286046988.9,Y
1679669975.7,286046993.5,P
1679669995.6,286046993.9,P
